カタログに戻る

GOES 16

運用中気象GEO
NORAD 41866·PAYLOAD·🇺🇸 United States

打ち上げ Nov 19, 2016 から Cape Canaveral Space Force Station

Loading…

TLE

最新Source: Space-Track

元期: Sep 14, 2026, 15:30 UTC

1 41866U 16071A   26257.64593189 -.00000099  00000-0  00000-0 0  9996
2 41866   0.5567  84.5367 0001589 127.5052 269.4442  1.00271609 36004

AllMySatでGOES 16をリアルタイム追跡

Download on the App Store